Regional Weather Roundup
Issued by NWS

Home | Current Version | Previous Version | Text Only | Print | Product List | Glossary On
Versions: 1 2 3 4 5 6 7 8 9 10 11 12 13 14 15 16 17 18 19 20 21 22 23 24 25 26 27 28 29 30 31 32 33 34 35 36 37 38 39 40 41 42 43 44 45 46 47 48 49 50
000
ASCA42 TJSJ 011910
RWRPR
PUERTO RICO/U.S. VIRGIN ISLANDS HOURLY WEATHER ROUNDUP
NATIONAL WEATHER SERVICE SAN JUAN PR
300 PM AST SAT AUG 01 2015

PRZ001-004-012000-
PUERTO RICO

CITY           SKY/WX    TMP DP  RH WIND       PRES   REMARKS
SAN JUAN LMM   MOSUNNY   88  75  66 E20       29.99F HX  97
PONCE          MOSUNNY   86  72  62 S23       29.92F HX  92
AGUADILLA      MOSUNNY   88  73  62 E25       30.00F HX  96
$$

PRZ006-007-012000-
U.S. VIRGIN ISLANDS

CITY           SKY/WX    TMP DP  RH WIND       PRES   REMARKS
CHARLOTTE AMA  MOSUNNY   93  66  40 E15G21    29.98F HX  96
CHRISTIANSTED  MOSUNNY   86  72  62 E16G25    29.99F HX  92
$$

HOURLY WEATHER ROUNDUP FOR THE NEWS MEDIA

CITY           SKY/WX    TMP DP  RH WIND       PRES   REMARKS
ORLANDO        LGT RAIN  74  73  97 SW16      29.98R
NEW YORK       PTSUNNY   90  57  32 SW21      29.79F
NEWARK         MOSUNNY   91  51  25 W16G28    29.77F
CHICAGO        MOSUNNY   86  56  35 W16G23    29.94F
HARTFORD       MOSUNNY   86  65  49 SW21G28   29.73F
BOSTON         PTSUNNY   89  57  33 SW13G25   29.70F
DALLAS         MOSUNNY   95  60  31 E8        30.02F HX  95
PHILADELPHIA   PTSUNNY   87  57  35 W16       29.83F
LOS ANGELES    MOSUNNY   74  63  68 SW10      29.97F
WASHINGTON DC  PTSUNNY   86  63  45 W6        29.87F


USA.gov is the U.S. government's official web portal to all federal, state and local government web resources and services.